7 * 24
多渠道服务支持
STARLINK-36274(NORAD编号68251)是美国太空探索技术公司(SpaceX)星链(Starlink)星座中的一颗二代低轨互联网通信卫星,隶属于全球规模最大的商业卫星互联网项目。星链计划旨在构建覆盖全球的低时延、高带宽天基通信网络,该卫星运行在近地轨道,工作于Ku/Ka频段,配备相控阵天线与氩气推进系统,可支持全球高速互联网接入服务,同时具备卫星间激光互联、轨道机动与自主离轨能力,是星链实现全球无缝覆盖通信网络的组成单元之一。
美国
(US)
| 数据来源 | 国际轨道数据 |
| 星历时间: | 2026-06-11T18:14:16+0800 1天前 查看轨道信息 |
| 半长轴: | 6853.35km |
| 偏心率: | 0.0002139 |
| 轨道倾角: | 53.158° |
| 近地点辐角 | 96.579° |
| 升交点赤经 | 221.483° |
| 平近点角 | 263.545° |
| 近地点: | 473.747km |
| 远地点: | 476.679km |
| 周期: | 94.105分钟 |
| 每日圈数: | 15.302009 |